Home   Weather   Oberhausen   Past weeks
Flag for Germany

Past Weather in Oberhausen, North Rhine-Westphalia, Germany — Yesterday and Last 2 Weeks

Now
70 °F

Passing clouds.


Feels Like: 70 °F
Forecast: 67 / 53 °F
Wind: 7 mph from Southeast

Location: Duesseldorf

Current Time: Oct 14, 2019 at 1:41:04 pm

Latest Report: Oct 14, 2019 at 12:50 pm


Visibility: N/A

Pressure: 29.86 "Hg

Humidity: 64%

Dew Point: 57 °F

Location of OberhausenLocation

Past Weather in Oberhausen — Graph

°F

Oberhausen Temperature Yesterday

Maximum temperature yesterday: 77 °F (at 3:20 pm)
Minimum temperature yesterday: 59 °F (at 1:50 am)
Average temperature yesterday: 67 °F

High & Low Weather Summary for the Past Weeks

 TemperatureHumidityPressure
High77 °F (Oct 13, 3:20 pm)100% (Sep 29, 9:50 pm)30.09 "Hg (Sep 29, 9:50 pm)
Low46 °F (Oct 3, 3:20 am)51% (Oct 2, 1:50 pm)29.39 "Hg (Sep 29, 7:50 pm)
Average56 °F83%29.83 "Hg
* Reported Sep 29 12:20 pm — Oct 14 12:50 pm, Oberhausen. Weather by CustomWeather, © 2019

Note: Actual official high and low records may vary slightly from our data, if they occured in-between our weather recording intervals... More about our weather records

Advertising

Oberhausen Weather History for the Previous 24 Hours

Scroll right to see more
 ConditionsComfort  
Time TempWeatherWind HumidityBarometerVisibility
12:50 pm
Mon, Oct 14
70 °FPassing clouds.7 mph64%29.86 "HgN/A
12:20 pm70 °FSunny.10 mph64%29.89 "Hg10 mi
11:50 am66 °FPassing clouds.6 mph73%29.89 "HgN/A
11:20 am64 °FPassing clouds.5 mph78%29.92 "HgN/A
10:50 am63 °FPassing clouds.3 mph73%29.92 "HgN/A
10:20 am63 °FSunny.6 mph73%29.92 "Hg10 mi
9:50 am61 °FPassing clouds.6 mph83%29.92 "HgN/A
9:20 am57 °FPassing clouds.5 mph94%29.92 "HgN/A
8:50 am57 °FScattered clouds.3 mph94%29.92 "HgN/A
8:20 am57 °FScattered clouds.3 mph88%29.92 "HgN/A
7:50 am57 °FPassing clouds.6 mph88%29.92 "HgN/A
7:20 am55 °FPassing clouds.2 mph94%29.92 "HgN/A
6:50 am57 °FPassing clouds.2 mph94%29.92 "HgN/A
6:20 am55 °FClear.2 mph94%29.92 "Hg10 mi
5:50 am55 °FPassing clouds.1 mph94%29.92 "HgN/A
5:20 am55 °FPassing clouds.1 mph94%29.92 "HgN/A
4:50 am57 °FPassing clouds.2 mph88%29.95 "HgN/A
4:20 am59 °FPassing clouds.3 mph88%29.92 "HgN/A
3:50 am61 °FPassing clouds.8 mph83%29.95 "HgN/A
3:20 am59 °FPassing clouds.7 mph94%29.95 "HgN/A
2:50 am61 °FPassing clouds.7 mph83%29.92 "HgN/A
2:20 am61 °FPassing clouds.7 mph83%29.92 "HgN/A
1:50 am61 °FPassing clouds.8 mph88%29.92 "HgN/A
1:20 am63 °FPassing clouds.5 mph88%29.89 "HgN/A
12:50 am63 °FScattered showers. Passing clouds.7 mph94%29.89 "HgN/A
12:20 am64 °FPassing clouds.10 mph83%29.89 "HgN/A
11:50 pm
Sun, Oct 13
66 °FPassing clouds.8 mph88%29.86 "HgN/A
11:20 pm64 °FSprinkles. Passing clouds.8 mph94%29.86 "HgN/A
10:50 pm66 °FSprinkles. Passing clouds.12 mph88%29.86 "HgN/A
10:20 pm68 °FRain showers. Passing clouds.9 mph78%29.83 "HgN/A
9:50 pm70 °FRain showers. Passing clouds.12 mph69%29.80 "HgN/A
9:20 pm72 °FPassing clouds.14 mph65%29.80 "HgN/A
8:50 pm72 °FScattered showers. Passing clouds.17 mph65%29.77 "HgN/A
8:20 pm72 °FClear.15 mph69%29.77 "Hg10 mi
7:50 pm72 °FClear.13 mph69%29.77 "Hg10 mi
7:20 pm73 °FClear.12 mph65%29.77 "Hg10 mi
6:50 pm73 °FClear.13 mph65%29.77 "Hg10 mi
6:20 pm73 °FSunny.13 mph65%29.77 "Hg10 mi
5:50 pm73 °FSunny.15 mph61%29.74 "Hg10 mi
5:20 pm75 °FSunny.17 mph57%29.74 "Hg10 mi
4:50 pm75 °FSunny.15 mph61%29.74 "Hg10 mi
4:20 pm75 °FSunny.18 mph57%29.74 "Hg10 mi
3:50 pm77 °FSunny.17 mph54%29.74 "Hg10 mi
3:20 pm77 °FSunny.20 mph57%29.74 "Hg10 mi
2:50 pm75 °FSunny.17 mph65%29.74 "Hg10 mi
2:20 pm73 °FSunny.14 mph69%29.74 "Hg10 mi
1:50 pm72 °FSunny.12 mph69%29.77 "Hg10 mi
1:20 pm70 °FPassing clouds.12 mph73%29.77 "HgN/A
Weather by CustomWeather, © 2019

See weather overview